This is the latest recevied weather packets stored in our database for station/object KD0JCP-10. If no packets are shown the sender has not sent any weather packets the latest 10 day(s).
| Time | Temp. | Humidity | Pressure | Rain* | Wind** | Luminosity | Snow |
|---|---|---|---|---|---|---|---|
| 1777749981 | 18.33° C | 25% | 1020.5 hPa | 0 mm | - | - | - |
| 1777749681 | 18.33° C | 26% | 1020.6 hPa | 0 mm | - | - | - |
| 1777749381 | 17.78° C | 26% | 1020.6 hPa | 0 mm | - | - | - |
| 1777749081 | 17.78° C | 25% | 1020.7 hPa | 0 mm | - | - | - |
| 1777746981 | 17.22° C | 27% | 1021.4 hPa | 0 mm | - | - | - |
| 1777746381 | 17.22° C | 28% | 1021.5 hPa | 0 mm | - | - | - |
| 1777745781 | 17.22° C | 28% | 1021.6 hPa | 0 mm | - | - | - |
| 1777745481 | 16.67° C | 30% | 1021.6 hPa | 0 mm | - | - | - |
| 1777745181 | 16.67° C | 29% | 1021.8 hPa | 0 mm | - | - | - |
| 1777743982 | 16.67° C | 31% | 1022.1 hPa | 0 mm | - | - | - |
| 1777743682 | 16.67° C | 31% | 1022.2 hPa | 0 mm | - | - | - |
| 1777743382 | 16.11° C | 30% | 1022.3 hPa | 0 mm | - | - | - |
| 1777743082 | 16.11° C | 30% | 1022.5 hPa | 0 mm | - | - | - |
| 1777742782 | 16.11° C | 31% | 1022.5 hPa | 0 mm | - | - | - |
| 1777742482 | 16.11° C | 33% | 1022.7 hPa | 0 mm | - | - | - |
| 1777742182 | 16.11° C | 30% | 1022.8 hPa | 0 mm | - | - | - |
| 1777741882 | 16.11° C | 32% | 1022.9 hPa | 0 mm | - | - | - |
| 1777741282 | 16.11° C | 32% | 1022.9 hPa | 0 mm | - | - | - |
| 1777740982 | 15.56° C | 33% | 1023 hPa | 0 mm | - | - | - |
| 1777740682 | 15.56° C | 32% | 1023.1 hPa | 0 mm | - | - | - |
| 1777740082 | 15° C | 32% | 1023 hPa | 0 mm | - | - | - |
| 1777739782 | 15° C | 35% | 1023.1 hPa | 0 mm | - | - | - |
| 1777739482 | 15° C | 33% | 1023.2 hPa | 0 mm | - | - | - |
| 1777739182 | 15° C | 33% | 1023.3 hPa | 0 mm | - | - | - |
| 1777738882 | 14.44° C | 32% | 1023.3 hPa | 0 mm | - | - | - |
* Rain latest hour (hover to see other rain measurements)
** Current wind speed in m/s (hover to see current wind gust speed)